Retour au catalogue

STARLINK-4352

ActifCommunicationsSSO
NORAD 53047·PAYLOAD·🇺🇸 United States

Lancé Jul 11, 2022 depuis Vandenberg Space Force Base

Loading…

Prochains Passages (prochaines 24 heures)

TLE

FraisSource: CelesTrak SupGP

Époque: Sep 14, 2026, 21:41 UTC

1 53047C 22077E   26257.90395833  .00050240  00000+0  15593-2 0  2571
2 53047  97.2854  72.8213 0001300  95.9582 220.1584 15.33419355    13

Suivez STARLINK-4352 en temps réel avec AllMySat

Download on the App Store